Regional Weather Roundup
Issued by NWS Little Rock, AR

Home | Current Version | Previous Version | Graphics & Text | Print | Product List | Glossary On
Versions: 1 2 3 4 5 6 7 8 9 10 11 12 13 14 15 16 17 18 19 20 21 22 23 24 25 26 27 28 29 30 31 32 33 34 35 36 37 38 39 40 41 42 43 44 45 46 47 48 49 50
000
ASUS44 KLZK 251405
RWRLZK

WEATHER ROUNDUP FOR ARKANSAS
NATIONAL WEATHER SERVICE LITTLE ROCK AR
900 AM CDT FRI JUL 25 2014

NOTE: "FAIR" INDICATES FEW OR NO CLOUDS BELOW 12,000 FEET WITH NO
SIGNIFICANT WEATHER AND/OR OBSTRUCTIONS TO VISIBILITY.

ARZ001-003-010-029-251500-
NORTHWEST ARKANSAS

CITY           SKY/WX    TMP DP  RH WIND       PRES   REMARKS
FAYETTEVILLE   CLOUDY    74  70  87 S13       30.07R
FORT SMITH     MOSUNNY   77  72  84 E3        30.04R
HARRISON       SUNNY     72  66  81 S12       30.08S
BENTONVILLE    CLOUDY    73  70  88 S13       30.06S
ROGERS         CLOUDY    75  69  81 S15       30.06S
SILOAM SPGS    CLOUDY    73  66  78 S13       30.06S
HIGHFILL       CLOUDY    73  72  96 S10       30.06R
SPRINGDALE     CLOUDY    75  70  83 S14       30.08R
$$

ARZ004-005-016-251500-
NORTH CENTRAL ARKANSAS

CITY           SKY/WX    TMP DP  RH WIND       PRES   REMARKS
MTN HOME       MOSUNNY   71  61  70 VRB5      30.08R
$$

ARZ040-041-251500-
WEST CENTRAL ARKANSAS

CITY           SKY/WX    TMP DP  RH WIND       PRES   REMARKS
MENA           PTSUNNY   77  72  83 CALM      30.09R
MOUNT IDA      PTSUNNY   75  66  73 CALM      30.07R
$$

ARZ009-017-025-026-028-251500-
NORTHEAST ARKANSAS

CITY           SKY/WX    TMP DP  RH WIND       PRES   REMARKS
CORNING        FAIR      70  66  88 CALM      30.09S
NEWPORT        SUNNY     71  65  81 N9        30.10R
$$

ARZ022-023-033-042-044-251500-
CENTRAL ARKANSAS

CITY           SKY/WX    TMP DP  RH WIND       PRES   REMARKS
LITTLE ROCK    MOSUNNY   74  62  66 SW6       30.09R
N LITTLE ROCK  MOSUNNY   74  64  71 S6        30.09R
JACKSONVILLE   SUNNY     75  66  73 VRB5      30.09R
SEARCY         MOSUNNY   74  65  73 CALM      30.10R
HOT SPRINGS    PTSUNNY   75  64  68 CALM      30.09R
RUSSELLVILLE   CLOUDY    73  65  75 VRB3      30.08R
CLINTON        FAIR      70  66  88 CALM      30.09F
$$

ARZ036-251500-
EAST ARKANSAS

CITY           SKY/WX    TMP DP  RH WIND       PRES   REMARKS
WEST MEMPHIS   SUNNY     73  64  73 SE3       30.06R
$$

ARZ050-053-066-070-073-251500-
SOUTHWEST ARKANSAS

CITY           SKY/WX    TMP DP  RH WIND       PRES   REMARKS
ARKADELPHIA    FAIR      75  67  76 CALM      30.09R
CAMDEN         PTSUNNY   73  64  73 NE3       30.07R
TEXARKANA      PTSUNNY   77  72  84 SE6       30.06R
EL DORADO      PTSUNNY   76  66  71 E3        30.07R
DE QUEEN       PTSUNNY   76  72  87 VRB3      30.04R FOG
$$

ARZ056-057-069-251500-
SOUTHEAST ARKANSAS

CITY           SKY/WX    TMP DP  RH WIND       PRES   REMARKS
PINE BLUFF     SUNNY     73  63  70 CALM      30.08S
STUTTGART      SUNNY     72  64  78 CALM      30.09R
MONTICELLO     SUNNY     74  63  68 E5        30.07R

$$





USA.gov is the U.S. government's official web portal to all federal, state and local government web resources and services.